TimeEST,TemperatureF,Dew PointF,Humidity,Sea Level PressureIn,VisibilityMPH,Wind Direction,Wind SpeedMPH,Gust SpeedMPH,PrecipitationIn,Events,Conditions,WindDirDegrees,DateUTC
12:56 AM,51.8,44.6,76,29.94,10.0,West,4.6,-,N/A,,Mostly Cloudy,270,2013-02-28 05:56:00
1:56 AM,48.9,43.0,80,29.94,10.0,West,4.6,-,N/A,,Mostly Cloudy,260,2013-02-28 06:56:00
2:56 AM,48.9,44.1,83,29.94,10.0,WSW,5.8,-,N/A,,Partly Cloudy,240,2013-02-28 07:56:00
3:56 AM,48.9,44.1,83,29.94,10.0,WSW,5.8,-,N/A,,Partly Cloudy,240,2013-02-28 08:56:00
4:56 AM,48.9,44.1,83,29.94,10.0,WSW,5.8,-,N/A,,Clear,240,2013-02-28 09:56:00
5:56 AM,48.0,43.0,83,29.94,10.0,West,8.1,-,N/A,,Clear,260,2013-02-28 10:56:00
6:56 AM,48.9,45.0,86,29.95,10.0,West,6.9,-,N/A,,Partly Cloudy,260,2013-02-28 11:56:00
7:56 AM,51.6,49.8,94,29.97,10.0,West,5.8,-,N/A,,Partly Cloudy,260,2013-02-28 12:56:00
8:56 AM,53.4,47.1,79,29.99,10.0,WNW,9.2,-,N/A,,Partly Cloudy,300,2013-02-28 13:56:00
9:56 AM,57.9,39.9,51,29.98,10.0,NW,10.4,-,N/A,,Clear,310,2013-02-28 14:56:00
10:56 AM,61.0,39.9,46,29.97,10.0,West,9.2,17.3,N/A,,Partly Cloudy,260,2013-02-28 15:56:00
11:56 AM,64.0,41.0,43,29.94,10.0,West,15.0,18.4,N/A,,Partly Cloudy,270,2013-02-28 16:56:00
12:56 PM,66.0,41.0,40,29.91,10.0,West,16.1,24.2,N/A,,Mostly Cloudy,270,2013-02-28 17:56:00
1:56 PM,66.9,42.1,40,29.88,10.0,West,18.4,26.5,N/A,,Scattered Clouds,280,2013-02-28 18:56:00
2:56 PM,68.0,41.0,37,29.87,10.0,West,20.7,31.1,N/A,,Scattered Clouds,270,2013-02-28 19:56:00
3:56 PM,68.0,39.0,35,29.87,10.0,West,15.0,24.2,N/A,,Scattered Clouds,270,2013-02-28 20:56:00
4:56 PM,66.9,36.0,32,29.86,10.0,West,17.3,28.8,N/A,,Partly Cloudy,280,2013-02-28 21:56:00
5:56 PM,64.0,35.1,34,29.88,10.0,West,10.4,-,N/A,,Scattered Clouds,270,2013-02-28 22:56:00
6:56 PM,60.1,36.0,41,29.89,10.0,West,6.9,-,N/A,,Mostly Cloudy,280,2013-02-28 23:56:00
7:56 PM,59.0,35.1,41,29.91,10.0,WNW,6.9,-,N/A,,Mostly Cloudy,300,2013-03-01 00:56:00
8:56 PM,57.9,32.0,37,29.93,10.0,WNW,6.9,-,N/A,,Mostly Cloudy,300,2013-03-01 01:56:00
9:56 PM,55.9,33.1,42,29.93,10.0,NW,5.8,-,N/A,,Mostly Cloudy,320,2013-03-01 02:56:00
10:56 PM,55.0,33.1,43,29.93,10.0,WNW,8.1,-,N/A,,Mostly Cloudy,300,2013-03-01 03:56:00
11:56 PM,54.0,33.1,45,29.94,10.0,WNW,8.1,-,N/A,,Mostly Cloudy,290,2013-03-01 04:56:00